DLH117P EDDG-EDFH

Flight info

Callsign DLH117P
Flight time 0h 37m
Altitude 16000
Route DOMEG1W DOMEG N853 ONUNE T473 LIPMI/N0342F150 T911 ROLIS ROLIS4A
Aircraft A320/M-SDE3FGHIRWY/LB1

Departure

Time 2026-04-23 14:10
Airport Münster Osnabrück Airport (EDDG)

Arrival

Time 2026-04-23 14:48
Airport Frankfurt-Hahn Airport (EDFH)
Time Latitude Longitude Altitude Speed Heading
2026-04-23 13:18 52.13134 7.69222 168 ft 0 kts 187°
2026-04-23 14:05 52.13132 7.69220 168 ft 2 kts 200°
2026-04-23 14:05 52.13129 7.69216 168 ft 1 kts 211°
2026-04-23 14:05 52.13131 7.69207 168 ft 0 kts 286°
2026-04-23 14:06 52.13142 7.69201 168 ft 3 kts 342°
2026-04-23 14:06 52.13168 7.69220 167 ft 5 kts 44°
2026-04-23 14:06 52.13204 7.69256 167 ft 7 kts 43°
2026-04-23 14:06 52.13243 7.69308 167 ft 9 kts 13°
2026-04-23 14:07 52.13312 7.69288 166 ft 12 kts 342°
2026-04-23 14:07 52.13440 7.69253 166 ft 7 kts 34°
2026-04-23 14:07 52.13465 7.69316 167 ft 9 kts 66°
2026-04-23 14:08 52.13491 7.69427 167 ft 10 kts 70°
2026-04-23 14:08 52.13525 7.69581 167 ft 16 kts 73°
2026-04-23 14:08 52.13557 7.69747 167 ft 15 kts 70°
2026-04-23 14:08 52.13592 7.69910 165 ft 15 kts 71°
2026-04-23 14:09 52.13667 7.70030 165 ft 19 kts 15°
2026-04-23 14:09 52.13760 7.69986 165 ft 13 kts 314°
2026-04-23 14:09 52.13763 7.69898 167 ft 0 kts 253°
2026-04-23 14:10 52.13732 7.69740 169 ft 49 kts 252°
2026-04-23 14:10 52.13534 7.68820 167 ft 120 kts 250°
2026-04-23 14:10 52.13232 7.67253 306 ft 162 kts 256°
2026-04-23 14:10 52.12871 7.65541 1040 ft 159 kts 253°
2026-04-23 14:11 52.12489 7.63838 1668 ft 168 kts 253°
2026-04-23 14:11 52.12075 7.61937 1940 ft 189 kts 257°
2026-04-23 14:11 52.11626 7.59794 2162 ft 210 kts 254°
2026-04-23 14:11 52.11134 7.57437 2434 ft 228 kts 256°
2026-04-23 14:12 52.10580 7.54978 3029 ft 235 kts 248°
2026-04-23 14:12 52.09467 7.52961 3573 ft 252 kts 215°
2026-04-23 14:12 52.07764 7.52122 4074 ft 262 kts 187°
2026-04-23 14:12 52.05944 7.51814 4666 ft 264 kts 186°
2026-04-23 14:13 52.04107 7.51523 5260 ft 267 kts 187°
2026-04-23 14:13 52.02253 7.51233 5897 ft 268 kts 186°
2026-04-23 14:13 52.00410 7.51064 6524 ft 270 kts 178°
2026-04-23 14:13 51.98537 7.51434 7099 ft 272 kts 170°
2026-04-23 14:14 51.96639 7.51945 7675 ft 274 kts 170°
2026-04-23 14:14 51.94751 7.52447 8239 ft 276 kts 170°
2026-04-23 14:14 51.92848 7.52951 8808 ft 278 kts 170°
2026-04-23 14:14 51.90934 7.53458 9365 ft 280 kts 170°
2026-04-23 14:15 51.89054 7.53956 9730 ft 295 kts 170°
2026-04-23 14:15 51.86981 7.54505 10453 ft 306 kts 170°
2026-04-23 14:15 51.84806 7.55081 10868 ft 329 kts 170°
2026-04-23 14:15 51.82470 7.55700 11269 ft 349 kts 170°
2026-04-23 14:16 51.80044 7.56340 12018 ft 356 kts 170°
2026-04-23 14:16 51.77591 7.56982 12862 ft 360 kts 171°
2026-04-23 14:16 51.75105 7.57631 13710 ft 364 kts 171°
2026-04-23 14:16 51.72582 7.58146 14481 ft 368 kts 178°
2026-04-23 14:17 51.70012 7.57952 15196 ft 372 kts 188°
2026-04-23 14:17 51.67488 7.56989 15892 ft 375 kts 198°
2026-04-23 14:17 51.64978 7.55710 16257 ft 379 kts 198°
2026-04-23 14:17 51.62467 7.54437 16363 ft 379 kts 198°
2026-04-23 14:18 51.59947 7.53167 16381 ft 378 kts 198°
2026-04-23 14:18 51.57435 7.51906 16382 ft 378 kts 198°
2026-04-23 14:18 51.54915 7.50649 16382 ft 379 kts 198°
2026-04-23 14:18 51.52402 7.49396 16377 ft 379 kts 198°
2026-04-23 14:19 51.49884 7.48142 16376 ft 378 kts 198°
2026-04-23 14:19 51.47373 7.46888 16373 ft 378 kts 198°
2026-04-23 14:19 51.44859 7.45632 16374 ft 378 kts 198°
2026-04-23 14:19 51.42345 7.44376 16374 ft 379 kts 198°
2026-04-23 14:20 51.39827 7.43120 16379 ft 379 kts 198°
2026-04-23 14:20 51.37309 7.41866 16378 ft 379 kts 198°
2026-04-23 14:20 51.34801 7.40537 16378 ft 379 kts 200°
2026-04-23 14:20 51.32319 7.39089 16381 ft 379 kts 201°
2026-04-23 14:21 51.29857 7.37581 16381 ft 379 kts 202°
2026-04-23 14:21 51.27397 7.36055 16375 ft 379 kts 202°
2026-04-23 14:21 51.24938 7.34540 16376 ft 379 kts 201°
2026-04-23 14:21 51.22468 7.33043 16375 ft 379 kts 201°
2026-04-23 14:22 51.20000 7.31568 16374 ft 379 kts 201°
2026-04-23 14:22 51.17522 7.30102 16373 ft 379 kts 200°
2026-04-23 14:22 51.14975 7.29009 16373 ft 379 kts 188°
2026-04-23 14:22 51.12345 7.28859 16372 ft 379 kts 174°
2026-04-23 14:23 51.09791 7.29631 16364 ft 378 kts 161°
2026-04-23 14:23 51.07390 7.31279 16363 ft 376 kts 148°
2026-04-23 14:23 51.05160 7.33451 16361 ft 376 kts 147°
2026-04-23 14:23 51.02931 7.35635 16361 ft 376 kts 147°
2026-04-23 14:24 51.00701 7.37807 16361 ft 376 kts 147°
2026-04-23 14:24 50.98470 7.39973 16359 ft 376 kts 147°
2026-04-23 14:24 50.96234 7.42143 16360 ft 376 kts 147°
2026-04-23 14:24 50.94003 7.44306 16360 ft 376 kts 147°
2026-04-23 14:25 50.91770 7.46470 16360 ft 376 kts 147°
2026-04-23 14:25 50.89530 7.48634 16363 ft 376 kts 147°
2026-04-23 14:25 50.87290 7.50794 16365 ft 376 kts 147°
2026-04-23 14:25 50.85055 7.52951 16373 ft 376 kts 147°
2026-04-23 14:26 50.82817 7.55106 16370 ft 376 kts 148°
2026-04-23 14:26 50.80443 7.56854 16360 ft 377 kts 160°
2026-04-23 14:26 50.77930 7.57788 16114 ft 365 kts 173°
2026-04-23 14:26 50.75420 7.57825 15868 ft 359 kts 186°
2026-04-23 14:27 50.72990 7.57001 15625 ft 356 kts 197°
2026-04-23 14:27 50.70619 7.55905 15376 ft 354 kts 197°
2026-04-23 14:27 50.68259 7.54819 15131 ft 352 kts 197°
2026-04-23 14:27 50.65907 7.53741 14895 ft 352 kts 197°
2026-04-23 14:28 50.63563 7.52669 14653 ft 350 kts 197°
2026-04-23 14:28 50.61221 7.51603 14419 ft 350 kts 197°
2026-04-23 14:28 50.58913 7.50556 14182 ft 349 kts 197°
2026-04-23 14:28 50.56583 7.49503 13919 ft 348 kts 197°
2026-04-23 14:29 50.54258 7.48451 13644 ft 346 kts 197°
2026-04-23 14:29 50.51953 7.47405 13248 ft 343 kts 197°
2026-04-23 14:29 50.49667 7.46366 12823 ft 341 kts 197°
2026-04-23 14:29 50.47392 7.45335 12420 ft 339 kts 197°
2026-04-23 14:30 50.45135 7.44315 12034 ft 337 kts 197°
2026-04-23 14:30 50.42891 7.43309 11643 ft 334 kts 197°
2026-04-23 14:30 50.40663 7.42310 11253 ft 332 kts 197°
2026-04-23 14:30 50.38443 7.41315 10849 ft 331 kts 197°
2026-04-23 14:31 50.36240 7.40326 10490 ft 328 kts 197°
2026-04-23 14:31 50.34063 7.39349 10233 ft 320 kts 196°
2026-04-23 14:31 50.31984 7.38414 9933 ft 303 kts 196°
2026-04-23 14:31 50.29970 7.37509 9310 ft 299 kts 196°
2026-04-23 14:32 50.27987 7.36619 8666 ft 296 kts 196°
2026-04-23 14:32 50.26017 7.35738 8013 ft 293 kts 197°
2026-04-23 14:32 50.24062 7.34867 7408 ft 289 kts 196°
2026-04-23 14:32 50.22133 7.34009 6781 ft 287 kts 197°
2026-04-23 14:33 50.20237 7.33124 6124 ft 282 kts 200°
2026-04-23 14:33 50.18453 7.31899 5428 ft 278 kts 209°
2026-04-23 14:33 50.16756 7.30445 4720 ft 276 kts 210°
2026-04-23 14:33 50.15078 7.29014 4146 ft 273 kts 210°
2026-04-23 14:34 50.13406 7.27595 4008 ft 275 kts 209°
2026-04-23 14:34 50.11731 7.26174 4012 ft 277 kts 210°
2026-04-23 14:34 50.10044 7.24744 4008 ft 274 kts 209°
2026-04-23 14:34 50.08373 7.23330 4011 ft 269 kts 209°
2026-04-23 14:35 50.06772 7.21979 4006 ft 254 kts 209°
2026-04-23 14:35 50.05250 7.20697 4000 ft 244 kts 208°
2026-04-23 14:35 50.03750 7.19433 4010 ft 246 kts 210°
2026-04-23 14:35 50.02258 7.18175 4006 ft 243 kts 210°
2026-04-23 14:36 50.00774 7.16920 4009 ft 244 kts 210°
2026-04-23 14:36 49.99318 7.15583 4003 ft 240 kts 213°
2026-04-23 14:36 49.98380 7.14668 4012 ft 242 kts 213°
2026-04-23 14:36 49.96959 7.13253 4008 ft 244 kts 213°
2026-04-23 14:37 49.95073 7.11370 4010 ft 244 kts 213°
2026-04-23 14:37 49.93643 7.09946 4007 ft 244 kts 213°
2026-04-23 14:37 49.92209 7.08524 4005 ft 244 kts 212°
2026-04-23 14:37 49.90778 7.07113 3989 ft 244 kts 213°
2026-04-23 14:38 49.89811 7.06162 3988 ft 244 kts 213°
2026-04-23 14:38 49.88402 7.04777 3994 ft 242 kts 213°
2026-04-23 14:38 49.86981 7.03381 3996 ft 244 kts 213°
2026-04-23 14:38 49.85551 7.01980 3988 ft 242 kts 213°
2026-04-23 14:39 49.84119 7.00581 3984 ft 245 kts 213°
2026-04-23 14:39 49.82674 6.99173 3985 ft 245 kts 213°
2026-04-23 14:39 49.81237 6.97778 3979 ft 243 kts 213°
2026-04-23 14:39 49.79807 6.96391 3987 ft 243 kts 213°
2026-04-23 14:40 49.78377 6.95003 3979 ft 243 kts 213°
2026-04-23 14:40 49.76946 6.93608 3985 ft 244 kts 213°
2026-04-23 14:40 49.75505 6.92212 3976 ft 243 kts 210°
2026-04-23 14:40 49.73910 6.91416 3986 ft 244 kts 181°
2026-04-23 14:41 49.72265 6.91857 3982 ft 241 kts 152°
2026-04-23 14:41 49.70913 6.93426 3990 ft 257 kts 128°
2026-04-23 14:41 49.70011 6.95826 3979 ft 261 kts 105°
2026-04-23 14:41 49.69795 6.98583 3974 ft 259 kts 83°
2026-04-23 14:42 49.70274 7.01160 3973 ft 241 kts 61°
2026-04-23 14:42 49.71254 7.03129 3976 ft 219 kts 39°
2026-04-23 14:42 49.72458 7.04421 3979 ft 208 kts 31°
2026-04-23 14:42 49.73685 7.05618 3996 ft 210 kts 31°
2026-04-23 14:43 49.74880 7.06787 3996 ft 198 kts 31°
2026-04-23 14:43 49.76020 7.07900 3991 ft 190 kts 31°
2026-04-23 14:43 49.77138 7.08993 3998 ft 190 kts 31°
2026-04-23 14:43 49.78243 7.10072 4012 ft 190 kts 32°
2026-04-23 14:44 49.79355 7.11159 4007 ft 191 kts 30°
2026-04-23 14:44 49.80471 7.12250 3985 ft 187 kts 32°
2026-04-23 14:44 49.81580 7.13336 3996 ft 189 kts 32°
2026-04-23 14:44 49.82701 7.14432 3995 ft 191 kts 31°
2026-04-23 14:45 49.83824 7.15533 3849 ft 191 kts 31°
2026-04-23 14:45 49.84933 7.16620 3651 ft 185 kts 32°
2026-04-23 14:45 49.86016 7.17685 3380 ft 181 kts 31°
2026-04-23 14:45 49.87031 7.18680 3170 ft 164 kts 31°
2026-04-23 14:46 49.87933 7.19567 2959 ft 146 kts 31°
2026-04-23 14:46 49.88760 7.20382 2749 ft 136 kts 31°
2026-04-23 14:46 49.89562 7.21173 2599 ft 134 kts 30°
2026-04-23 14:46 49.90351 7.21949 2380 ft 134 kts 29°
2026-04-23 14:47 49.91140 7.22719 2178 ft 133 kts 31°
2026-04-23 14:47 49.91924 7.23498 2062 ft 133 kts 27°
2026-04-23 14:47 49.92695 7.24262 1798 ft 129 kts 29°
2026-04-23 14:47 49.93453 7.25011 1683 ft 129 kts 30°
2026-04-23 14:48 49.94130 7.25661 1668 ft 95 kts 32°
2026-04-23 14:48 49.94543 7.26067 1663 ft 46 kts 32°
2026-04-23 14:48 49.94670 7.26192 1652 ft 5 kts 33°
2026-04-23 14:48 49.94824 7.26353 1651 ft 41 kts 32°
2026-04-23 14:49 49.95075 7.26596 1647 ft 33 kts 30°
2026-04-23 14:49 49.95083 7.26717 1646 ft 17 kts 148°
2026-04-23 14:49 49.94968 7.26750 1647 ft 16 kts 153°
2026-04-23 14:49 49.94894 7.26859 1647 ft 14 kts 157°
2026-04-23 14:50 49.94814 7.26816 1648 ft 14 kts 212°
2026-04-23 14:50 49.94740 7.26745 1649 ft 11 kts 203°
2026-04-23 14:50 49.94698 7.26812 1650 ft 9 kts 121°
2026-04-23 14:50 49.94676 7.26889 1649 ft 7 kts 86°
2026-04-23 14:51 49.94708 7.26940 1649 ft 2 kts 33°